sat.trackr.live / text

‹ back to catalog

STARLINK-34243

NORAD 64361 · 2025-126T

PAYLOAD ACTIVE UNKNOWN

§ Identity

Operator
Country
US
Launch date
2025-06-13
Launch site
AFWTR
Launch vehicle
Mass (kg)
RCS (m²)

Purposes: comms

External: N2YO · Heavens-Above · Gunter

§ Orbital elements

Epoch: 2026-05-25T03:31:35.565024Z

Period
96.11 min
Inclination
70.0008°
Eccentricity
0.0003881
Mean motion
14.98334774 rev/d
Perigee alt
569.3 km
Apogee alt
574.7 km
Semi-major
6,950.2 km
B*
2.1090e-4
RAAN
201.7101°
Arg perigee
267.2535°
Mean anomaly
92.8179°
Rev number
5,213

§ Raw data

STARLINK-342431 64361U 25126T   26145.14693941  .00002425  00000+0  21090-3 0  99982 64361  70.0008 201.7101 0003881 267.2535  92.8179 14.98334774 52136

JSON: /api/v1/satellites/64361 · /tle

For live sub-satellite position, see the globe view (requires WebGL).

§ Visibility from observer

Set your observer location to see the next 7 days of passes ≥ 10°. The values pass through the URL so the page stays shareable.

No JS? Fill the form by hand. The geolocation button needs JavaScript.